Location: Newark
(53.3469°N, 7.1606°E)
Time: 12:44:56
(UTC+00:00)

N. Korean satellite - Pass Details

Date: 18 November 2019
Orbit: 455 x 507 km, 97.2° (Epoch: 15 December)

Event Time Altitude Azimuth Distance (km) Brightness Sun altitude
Rises 17:11:53 0° 194° (SSW) 2,566 10.6 -14.7°
Reaches altitude 10° 17:14:11 10° 207° (SSW) 1,697 9.9 -15.0°
Maximum altitude 17:17:19 26° 266° (W) 1,010 9.0 -15.5°
Drops below altitude 10° 17:20:30 10° 325° (NW) 1,728 9.7 -15.9°
Sets 17:22:52 0° 338° (NNW) 2,623 10.4 -16.3°
